FW6562 Weather Reports


time (UTC)temp
F
wind
direction
speed
knots
gust
knots
rain 1hr
in
rain 24hr
in
rain mn
in
humidity
%
barometer
mb
20260505181203 58 184 0.0 0.9 0.00 0.09 0.09 85 1013.0
20260505180704 58 183 0.0 0.9 0.00 0.09 0.09 85 1013.0
20260505175203 58 184 0.0 1.7 0.00 0.09 0.09 86 1013.0
20260505174704 58 184 0.9 0.9 0.00 0.09 0.09 85 1013.0
20260505174204 58 183 0.9 1.7 0.00 0.09 0.09 85 1013.0
20260505173204 58 184 1.7 4.3 0.00 0.09 0.09 85 1013.1
20260505172703 58 174 2.6 4.3 0.00 0.09 0.09 85 1013.1
20260505171704 58 164 2.6 5.2 0.00 0.09 0.09 85 1013.1
20260505171203 59 166 2.6 5.2 0.00 0.09 0.09 83 1013.1
20260505170203 59 166 2.6 5.2 0.00 0.09 0.09 83 1013.2
20260505165704 59 180 1.7 5.2 0.00 0.09 0.09 83 1013.2
20260505165204 59 176 1.7 5.2 0.00 0.09 0.09 82 1013.2
20260505164704 59 170 1.7 4.3 0.00 0.09 0.09 82 1013.3
20260505163705 59 184 1.7 4.3 0.00 0.09 0.09 82 1013.4
20260505163203 59 167 1.7 5.2 0.00 0.09 0.09 82 1013.4
20260505162204 59 184 1.7 5.2 0.00 0.09 0.09 80 1013.3
20260505161705 59 184 1.7 5.2 0.00 0.09 0.09 80 1013.2
20260505161204 59 180 1.7 5.2 0.00 0.09 0.09 80 1013.2
20260505160704 60 175 0.9 4.3 0.00 0.09 0.09 79 1013.2
20260505160206 60 175 0.9 5.2 0.00 0.09 0.09 79 1013.2
20260505153204 59 192 1.7 4.3 0.00 0.09 0.09 80 1013.3
20260505152704 59 187 0.0 2.6 0.00 0.09 0.09 80 1013.3
20260505152204 59 183 0.0 4.3 0.00 0.09 0.09 79 1013.3
20260505151703 59 184 1.7 1.7 0.00 0.09 0.09 79 1013.3
20260505151205 59 26 1.7 2.6 0.00 0.09 0.09 80 1013.3
20260505150703 59 13 0.0 4.3 0.00 0.09 0.09 80 1013.4
20260505140205 58 325 0.0 1.7 0.00 0.09 0.09 84 1013.9
20260505130204 56 317 0.0 1.7 0.00 0.09 0.09 87 1014.2
20260505124706 56 332 0.0 1.7 0.00 0.09 0.09 87 1014.3
20260505124204 56 313 0.0 1.7 0.00 0.09 0.09 88 1014.3
20260505123704 56 30 0.0 1.7 0.00 0.09 0.09 88 1014.4
20260505121704 55 322 0.0 1.7 0.00 0.09 0.09 89 1014.4
20260505121204 55 341 0.0 1.7 0.00 0.09 0.09 90 1014.4
20260505120704 55 311 0.0 1.7 0.00 0.09 0.09 91 1014.5
20260505120205 55 324 0.0 1.7 0.00 0.09 0.09 91 1014.6
20260505115704 55 314 0.0 0.9 0.00 0.09 0.09 92 1014.6
20260505114704 55 311 0.0 1.7 0.00 0.09 0.09 92 1014.6
20260505114204 55 317 0.0 1.7 0.00 0.09 0.09 93 1014.6
20260505113703 55 315 0.0 1.7 0.00 0.09 0.09 93 1014.6
20260505113204 55 307 0.0 1.7 0.00 0.09 0.09 93 1014.6
20260505112704 55 344 0.0 0.9 0.00 0.09 0.09 93 1014.6
20260505112204 55 332 0.0 1.7 0.00 0.09 0.09 93 1014.6
20260505111705 55 319 0.0 0.0 0.00 0.09 0.09 93 1014.7
20260505111204 54 319 0.0 0.0 0.00 0.09 0.09 93 1014.7
20260505110704 54 317 0.0 0.9 0.00 0.09 0.09 92 1014.8
20260505110204 54 320 0.0 0.9 0.00 0.09 0.09 92 1014.8
20260505102204 54 330 0.0 0.9 0.00 0.09 0.09 93 1015.0
20260505101705 54 337 0.0 0.0 0.00 0.09 0.09 93 1015.0
20260505101204 54 337 0.0 0.0 0.00 0.09 0.09 94 1015.0
20260505100204 54 337 0.0 0.0 0.01 0.09 0.09 94 1015.0
20260505095704 54 334 0.0 0.9 0.01 0.09 0.09 94 1015.0
20260505095204 53 232 0.0 0.9 0.01 0.09 0.09 94 1015.0
20260505094703 53 307 0.0 1.7 0.01 0.09 0.09 94 1014.9
20260505093204 53 355 0.0 0.0 0.01 0.09 0.09 93 1014.8
20260505092704 53 169 0.0 1.7 0.01 0.09 0.09 94 1014.8
20260505092204 53 55 0.0 0.9 0.01 0.09 0.09 94 1014.9
20260505091704 53 313 0.0 0.0 0.02 0.09 0.09 94 1014.9
20260505091204 53 314 0.0 0.0 0.02 0.09 0.09 93 1014.9
20260505090704 53 316 0.0 0.0 0.02 0.09 0.09 93 1014.8
20260505090204 53 316 0.0 0.0 0.01 0.08 0.08 93 1014.7
20260505084704 53 308 0.0 0.0 0.01 0.08 0.08 94 1014.7
20260505083705 53 311 0.0 0.0 0.01 0.08 0.08 93 1014.6
20260505083204 53 308 0.0 0.0 0.01 0.08 0.08 94 1014.6
20260505082704 53 306 0.0 0.9 0.03 0.08 0.08 94 1014.6
20260505082204 53 343 0.0 0.9 0.03 0.08 0.08 93 1014.5
20260505081704 53 5 0.0 0.9 0.02 0.07 0.07 93 1014.5
20260505081204 53 4 0.0 1.7 0.02 0.07 0.07 93 1014.5
20260505080704 53 17 0.0 0.0 0.03 0.07 0.07 93 1014.5
20260505075705 53 348 0.0 1.7 0.04 0.07 0.07 92 1014.5
20260505075204 53 9 0.0 2.6 0.04 0.07 0.07 93 1014.5
20260505074704 53 350 0.0 0.0 0.04 0.07 0.07 93 1014.4
20260505074206 53 42 0.0 1.7 0.05 0.07 0.07 92 1014.4
20260505073704 53 21 0.9 1.7 0.05 0.07 0.07 92 1014.5
20260505072704 53 40 0.9 4.3 0.03 0.05 0.05 92 1014.6
20260505072204 53 3 0.9 0.9 0.03 0.05 0.05 92 1014.5
20260505071704 53 15 1.7 4.3 0.03 0.05 0.05 92 1014.4
20260505071204 53 44 1.7 4.3 0.03 0.05 0.05 92 1014.4
20260505070704 53 49 3.5 6.1 0.02 0.04 0.04 91 1014.4
20260505065704 53 33 4.3 6.1 0.01 0.03 0.03 90 1014.4
20260505065204 53 22 4.3 7.8 0.01 0.03 0.03 90 1014.3
20260505064205 54 28 1.7 6.1 0.00 0.02 0.02 89 1014.3
20260505063705 54 43 1.7 6.1 0.00 0.02 0.02 89 1014.2
20260505063204 54 30 1.7 4.3 0.00 0.02 0.02 89 1014.1
20260505062704 54 27 0.0 6.1 0.00 0.02 0.02 88 1014.1
20260505062204 54 61 0.0 1.7 0.00 0.02 0.02 89 1014.0
20260505061704 54 325 0.0 1.7 0.00 0.02 0.02 89 1014.0
20260505060704 53 328 0.0 1.7 0.00 0.02 0.02 90 1014.0
20260505060204 53 317 0.0 1.7 0.00 0.02 0.02 90 1014.0
20260505055204 53 340 0.0 1.7 0.00 0.02 0.02 91 1013.9
20260505054704 53 316 0.0 1.7 0.01 0.02 0.02 91 1013.9
20260505054204 53 324 0.0 1.7 0.01 0.02 0.02 91 1013.9
20260505053204 53 315 0.0 1.7 0.01 0.02 0.02 92 1013.9
20260505052704 53 322 0.0 2.6 0.01 0.02 0.02 91 1013.9
20260505052205 53 324 0.0 1.7 0.01 0.02 0.02 91 1014.0
20260505051704 53 317 0.0 1.7 0.01 0.02 0.02 91 1014.1
20260505051204 53 317 0.0 1.7 0.01 0.02 0.02 91 1014.1
20260505050704 53 328 0.0 1.7 0.01 0.02 0.02 91 1014.2
20260505050204 53 315 0.0 1.7 0.01 0.02 0.02 91 1014.3
20260505041704 54 159 0.0 0.0 0.01 0.01 0.01 91 1014.6
20260505041204 54 159 0.0 0.0 0.01 0.01 0.01 91 1014.6
20260505040704 54 159 1.7 0.9 0.01 0.01 0.01 91 1014.7
20260505040204 54 356 1.7 0.0 0.01 0.01 0.01 91 1014.8
20260505035204 54 194 1.7 5.2 0.00 0.00 0.00 91 1014.8
20260505034704 54 194 2.6 6.1 0.00 0.00 0.00 91 1014.8
20260505034204 54 189 2.6 4.3 0.00 0.00 0.00 91 1014.8
20260505033704 54 177 0.0 7.0 0.00 0.00 0.00 90 1014.8
20260505033204 55 194 0.0 5.2 0.00 0.00 0.00 90 1014.8
20260505032704 55 285 1.7 1.7 0.00 0.00 0.00 90 1014.8
20260505032205 55 241 1.7 2.6 0.00 0.00 0.00 90 1014.9
20260505031704 55 129 2.6 2.6 0.00 0.00 0.00 89 1014.9
20260505030704 55 163 2.6 5.2 0.00 0.00 0.00 89 1014.9
20260505030204 55 194 2.6 6.1 0.00 0.00 0.00 88 1014.9
20260505025704 55 201 0.9 6.1 0.00 0.00 0.00 88 1014.9
20260505024705 55 296 3.5 1.7 0.00 0.00 0.00 87 1014.9
20260505024204 55 171 4.3 4.3 0.00 0.00 0.00 86 1014.9
20260505023705 56 197 1.7 6.1 0.00 0.00 0.00 86 1014.9
20260505023204 56 164 1.7 7.0 0.00 0.00 0.00 84 1014.9
20260505022704 56 196 0.0 7.0 0.00 0.00 0.00 83 1014.9
20260505022204 56 193 0.0 4.3 0.00 0.00 0.00 82 1014.9
20260505021704 56 212 0.0 0.9 0.00 0.00 0.00 82 1014.9
20260505021204 56 212 0.0 1.7 0.00 0.00 0.00 81 1014.9
20260505020704 56 321 0.0 0.9 0.00 0.00 0.00 81 1014.9
20260505020204 56 324 0.0 0.0 0.00 0.00 0.00 81 1014.8
20260505015704 56 324 0.0 0.0 0.00 0.00 0.00 80 1014.8
20260505015204 56 322 0.0 0.9 0.00 0.00 0.00 80 1014.9
20260505014705 56 325 0.0 1.7 0.00 0.00 0.00 80 1014.9
20260505014204 56 306 0.0 1.7 0.00 0.00 0.00 80 1014.9
20260505013205 56 317 0.0 1.7 0.00 0.00 0.00 81 1014.9
20260505012704 56 336 1.7 0.0 0.00 0.00 0.00 82 1014.9
20260505012204 56 329 1.7 1.7 0.00 0.00 0.00 82 1015.1
20260505011704 56 11 0.9 5.2 0.00 0.00 0.00 82 1015.2
20260505011204 56 343 0.9 5.2 0.00 0.00 0.00 83 1015.2
20260505010705 56 321 3.5 1.7 0.00 0.00 0.00 83 1015.3
20260505005704 56 322 0.0 7.0 0.00 0.00 0.00 84 1015.4
20260505005204 56 318 0.0 7.0 0.00 0.00 0.00 84 1015.6
20260505004704 56 304 0.0 1.7 0.00 0.00 0.00 84 1015.8
20260505004204 56 282 0.0 1.7 0.00 0.00 0.00 83 1015.8
20260505003704 56 314 0.0 0.9 0.00 0.00 0.00 83 1016.1
20260505003204 56 310 0.0 0.9 0.00 0.00 0.00 82 1016.3
20260505001704 57 339 0.0 0.9 0.00 0.00 0.00 79 1016.6
20260505001204 57 137 0.0 1.7 0.00 0.00 0.00 78 1016.6
20260505000205 57 347 0.0 1.7 0.00 0.00 0.00 75 1016.8
20260504235206 57 309 0.0 0.0 0.00 0.00 0.00 74 1016.8
20260504234704 58 310 0.0 0.0 0.00 0.00 0.00 74 1016.8
20260504234204 58 311 0.0 1.7 0.00 0.00 0.00 72 1016.8
20260504233204 58 310 0.0 0.0 0.00 0.00 0.00 73 1016.8
20260504232704 58 310 0.0 0.0 0.00 0.00 0.00 73 1016.8
20260504232204 58 309 0.0 0.9 0.00 0.00 0.00 72 1017.0
20260504231704 58 325 0.0 1.7 0.00 0.00 0.00 72 1017.2
20260504230704 58 346 0.0 1.7 0.00 0.00 0.00 73 1017.3
20260504230204 58 293 0.0 0.0 0.00 0.00 0.00 74 1017.4
20260504225204 58 293 0.0 0.0 0.00 0.00 0.00 74 1017.4
20260504224704 58 293 0.0 0.0 0.00 0.00 0.00 74 1017.3
20260504224204 58 293 0.0 0.0 0.00 0.00 0.00 73 1017.3
20260504222704 58 292 0.0 0.0 0.00 0.00 0.00 72 1017.4
20260504222204 58 291 0.0 0.0 0.00 0.00 0.00 72 1017.5
20260504221705 58 290 0.0 0.9 0.00 0.00 0.00 72 1017.6
20260504221205 58 324 0.0 0.0 0.00 0.00 0.00 72 1017.6
20260504220704 58 324 0.0 0.0 0.00 0.00 0.00 73 1017.7
20260504215704 58 324 0.0 0.0 0.00 0.00 0.00 73 1017.9
20260504215204 59 324 0.0 0.0 0.00 0.00 0.00 73 1017.9
20260504214205 59 324 0.0 0.0 0.00 0.00 0.00 73 1017.9
20260504213704 59 321 0.0 0.0 0.00 0.00 0.00 73 1018.0
20260504213204 59 317 0.0 0.0 0.00 0.00 0.00 72 1018.0
20260504212704 59 319 0.0 0.0 0.00 0.00 0.00 72 1018.0
20260504211704 59 313 1.7 1.7 0.00 0.00 0.00 71 1018.1
20260504211204 59 333 1.7 1.7 0.00 0.00 0.00 71 1018.1
20260504210703 59 323 2.6 1.7 0.00 0.00 0.00 71 1018.1
20260504210203 59 313 2.6 7.0 0.00 0.00 0.00 71 1018.1
20260504204703 59 324 0.0 1.7 0.00 0.00 0.00 70 1018.1
20260504204203 59 320 0.0 1.7 0.00 0.00 0.00 70 1018.1
20260504203704 59 348 0.0 1.7 0.00 0.00 0.00 70 1018.2
20260504202202 59 329 0.0 1.7 0.00 0.00 0.00 71 1018.3
20260504201703 59 319 0.0 1.7 0.00 0.00 0.00 70 1018.3
20260504201203 58 313 0.0 1.7 0.00 0.00 0.00 71 1018.3
20260504200704 58 322 0.0 1.7 0.00 0.00 0.00 71 1018.2
20260504200203 58 318 0.0 1.7 0.00 0.00 0.00 71 1018.2
20260504195703 58 325 0.0 0.0 0.00 0.00 0.00 72 1018.2
20260504195203 58 322 0.0 1.7 0.00 0.00 0.00 72 1018.2
20260504194203 58 320 0.0 1.7 0.00 0.00 0.00 73 1018.2
20260504193703 58 321 0.0 1.7 0.00 0.00 0.00 73 1018.1
20260504193205 58 322 0.0 1.7 0.00 0.00 0.00 73 1018.0
20260504192704 58 324 0.0 1.7 0.00 0.00 0.00 74 1018.0
20260504191703 58 356 0.0 1.7 0.00 0.00 0.00 74 1018.0
20260504191203 58 324 0.0 1.7 0.00 0.00 0.00 74 1018.0
20260504190703 58 320 0.9 1.7 0.00 0.00 0.00 74 1017.9
20260504190203 58 320 0.9 1.7 0.00 0.00 0.00 74 1017.9
20260504185703 58 303 4.3 1.7 0.00 0.00 0.00 74 1017.9
20260504184704 58 313 2.6 7.8 0.00 0.00 0.00 73 1017.8
20260504184203 58 320 1.7 7.0 0.00 0.00 0.00 73 1017.8
20260504183703 58 316 1.7 7.0 0.00 0.00 0.00 75 1017.9
20260504183204 58 313 1.7 7.8 0.00 0.00 0.00 75 1017.9
20260504182703 59 344 1.7 4.3 0.00 0.00 0.00 77 1017.9
20260504182203 59 234 1.7 5.2 0.00 0.00 0.00 78 1018.0
20260504181703 59 312 0.0 10.4 0.00 0.00 0.00 79 1018.0